Location: Newark
(11.6000°N, 43.1667°E)
Time: 19:58:58
(UTC+00:00)

LightSail 2 - Pass Details

Date: 25 September 2019
Orbit: 707 x 722 km, 24.0° (Epoch: 16 October)

Event Time Altitude Azimuth Distance (km) Brightness Sun altitude
Exits shadow 01:07:43 21° 0° (N) 1,553 6.9 -27.4°
Drops below altitude 10° 01:11:10 10° 43° (NE) 2,158 8.2 -26.6°
Sets 01:14:08 0° 59° (ENE) 3,077 9.4 -25.9°
